Regional Weather Roundup
Issued by NWS

Home | Current Version | Previous Version | Text Only | Print | Product List | Glossary Off
Versions: 1 2 3 4 5 6 7 8 9 10 11 12 13 14 15 16 17 18 19 20 21 22 23 24 25 26 27 28 29 30 31 32 33 34 35 36 37 38 39 40 41 42 43 44 45 46 47 48 49 50

000
ASUS43 KOAX 281102
RWRNE

WEATHER ROUNDUP FOR NEBRASKA
NATIONAL WEATHER SERVICE OMAHA NE
500 AM CST SAT FEB 28 2015

NOTES: SATELLITE DATA IS BEING USED TO AUGMENT CLOUD COVER ABOVE
       12000 FEET.
       "FAIR" INDICATES FEW OR NO CLOUDS BELOW 12,000 FEET WITH NO
       SIGNIFICANT WEATHER AND/OR OBSTRUCTIONS TO VISIBILITY.

  * THESE STATIONS DO NOT REPORT WEATHER SUCH AS RAIN...SNOW OR FOG.

NEZ001>004-019>022-054>056-281200-
NEBRASKA PANHANDLE

CITY           SKY/WX    TMP DP  RH WIND       PRES   REMARKS
SCOTTSBLUFF    CLEAR      7   3  84 E7        29.99R WCI  -5
ALLIANCE       CLEAR      5   1  83 S6        30.00R WCI  -6
CHADRON        CLEAR      7   2  80 SW8       30.03S WCI  -6
SIDNEY         CLEAR      4  -1  80 S5        29.98R WCI  -5
$$

NEZ057>060-069>072-079>082-281200-
SOUTHWEST NEBRASKA

CITY           SKY/WX    TMP DP  RH WIND       PRES   REMARKS
NORTH PLATTE   CLOUDY    14   6  70 S10       30.17S WCI   1
IMPERIAL         N/A     14   7  73 S14       30.10F WCI  -1
MCCOOK         CLOUDY    16   8  71 S16       30.20S WCI   1
$$

NEZ005>010-023>029-035>040-094-281200-
NORTH CENTRAL NEBRASKA

CITY           SKY/WX    TMP DP  RH WIND       PRES   REMARKS
VALENTINE      CLEAR     14   6  70 S10       30.13F WCI   1
AINSWORTH      CLEAR     10   5  80 SE9       30.16F WCI  -3
BROKEN BOW     CLOUDY    14   6  70 S9        30.22S WCI   2
ORD            CLOUDY    10   3  73 SE7       30.28S WCI  -1
$$

NEZ041-046>049-061>064-073>077-083>087-281200-
SOUTH CENTRAL NEBRASKA

CITY           SKY/WX    TMP DP  RH WIND       PRES   REMARKS
GRAND ISLAND   CLEAR      7   4  87 S9        30.35S WCI  -7
HASTINGS       CLEAR      6   3  87 S9        30.32S WCI  -8
HEBRON         CLEAR      5   0  82 SE5       30.41S WCI  -4
KEARNEY *      CLOUDY     9   3  78 S7        30.30R WCI  -3
$$

NEZ011>018-030>034-042>045-281200-
NORTHEAST NEBRASKA

CITY           SKY/WX    TMP DP  RH WIND       PRES   REMARKS
NORFOLK        CLEAR      8   1  73 S10       30.37S WCI  -6
BLAIR          CLEAR      9   1  70 SE5       30.44S WCI   0
COLUMBUS *     CLEAR      9  -2  61 S9        30.40F WCI  -5
TEKAMAH        CLEAR      3  -2  79 S5        30.48S WCI  -6
$$

NEZ050>053-065>068-078-088>093-281200-
SOUTHEAST NEBRASKA

CITY           SKY/WX    TMP DP  RH WIND       PRES   REMARKS
LINCOLN        CLEAR      7   1  76 S5        30.45F WCI  -2
OMAHA EPPLEY   CLEAR      6   1  80 SE6       30.50S WCI  -4
FALLS CITY     PTCLDY    11   4  73 SE5       30.50S WCI   3
$$

NEZ044-045-051>053-067-281200-
OMAHA AREA

CITY           SKY/WX    TMP DP  RH WIND       PRES   REMARKS
OMAHA EPPLEY   CLEAR      6   1  80 SE6       30.50S WCI  -4
BLAIR          CLEAR      9   1  70 SE5       30.44S WCI   0
OFFUTT AFB     CLEAR      5  -1  76 SE7       30.49R WCI  -7
$$



USA.gov is the U.S. government's official web portal to all federal, state and local government web resources and services.